Location: Natchaung
(22.9985°N, 94.0330°E)
Time: 07:55:18
(UTC+00:00)

Daily predictions for brighter satellites

Satellite Brightness Start Highest point End
(mag) Time Altitude Azimuth Time Altitude Azimuth Time Altitude Azimuth
Meteor 2-11 Rocket 4.5 12:41:47 10° N 12:47:50 70° E 12:53:52 10° SSE
Cosmos 1607 4.2 12:42:56 10° NNW 12:49:17 60° ENE 12:55:36 10° SE
Sakura Rocket 4.2 12:46:13 10° W 12:51:30 69° NNW 12:59:02 10° ENE
SWIFT 3.6 12:49:34 10° SW 12:53:04 25° SSE 12:56:35 10° ESE
ARGOS 4.1 12:49:42 10° SE 12:54:15 29° ENE 12:58:49 10° NNE
USA 267 3.4 12:50:22 10° SE 12:56:53 73° NE 13:03:25 10° NW
STARLINK-1158 4.3 12:56:52 10° NNW 13:00:45 39° NE 13:04:23 11° ESE
Meteor 1-18 Rocket 4.4 12:56:42 10° SSE 13:02:03 52° E 13:07:29 10° NNE
Cosmos 2242 Rocket 3.6 12:57:41 10° S 13:02:05 90° NW 13:06:29 10° N
GPS 2-18 Rocket1 4.2 12:59:38 10° WSW 13:03:14 33° SSW 13:06:32 12° SE
CZ-2C R/B 3.4 12:59:32 10° NE 13:04:32 33° E 13:09:28 10° SSE
STARLINK-1162 4.2 13:01:47 10° NNW 13:05:46 45° NE 13:09:11 13° ESE
Cosmos 1733 Rocket 3.2 13:01:41 10° N 13:06:00 75° W 13:10:17 10° S
OAO 3 Copernicus 4.4 13:02:56 10° WNW 13:08:01 79° SSW 13:12:25 14° SE
CZ-2C R/B 3.3 13:03:19 10° SSE 13:08:31 57° ENE 13:14:01 10° N
Meteor 1-4 Rocket 3.1 13:07:32 10° SSE 13:10:40 33° E 13:13:47 10° NNE
Cosmos 1420 Rocket 4.1 13:06:51 10° S 13:11:54 52° ESE 13:16:56 10° NNE
Cosmos 1452 Rocket 4.2 13:07:19 10° SSE 13:11:57 32° E 13:16:36 10° NE
Okean 1 3.3 13:09:44 10° S 13:13:45 87° E 13:17:48 10° N
CZ-3B Rocket 3.6 13:08:53 10° W 13:13:54 65° S 13:42:39 10° ESE
STARLINK-1159 3.8 13:11:38 10° NNW 13:15:43 59° NE 13:18:44 17° SE
Cosmos 407 Rocket 4.4 13:11:38 10° N 13:16:21 31° ENE 13:19:49 16° SE
Cosmos 389 Rocket 3.7 13:13:55 10° SSW 13:17:12 43° W 13:20:31 10° N
Milstar 3 Cent rocket 3.6 13:12:41 10° SSW 13:18:22 37° SE 13:28:38 10° E
Cosmos 614 Rocket 4.4 13:14:02 10° N 13:18:52 43° ENE 13:22:43 16° SE
STARLINK-1171 3.6 13:16:34 10° NNW 13:20:41 68° NE 13:23:31 19° SE
DMSP B5D2-2 4.1 13:19:17 10° NNE 13:24:26 56° E 13:29:34 10° S
CZ-4 R/B 4.3 13:22:04 10° SW 13:24:42 16° W 13:27:22 10° WNW
BREEZE-M DEB (TANK) 3.7 13:23:19 10° W 13:24:58 18° SW 13:27:26 10° S
USA 186 1.3 13:24:07 28° SE 13:25:03 48° ENE 13:27:31 10° N
Cosmos 1975 4.2 13:22:11 10° NNE 13:25:18 21° E 13:26:17 20° ESE
STARLINK-1155 3.6 13:21:31 10° NW 13:25:38 78° NE 13:28:17 21° SE
ASTEX 1 3.5 13:22:02 10° SSE 13:26:45 54° E 13:31:31 10° N
Orbus 7S 3.6 13:27:58 10° W 13:30:30 52° N 13:34:56 10° ENE
STARLINK-1166 3.5 13:26:29 10° NW 13:30:37 89° ENE 13:33:04 23° SE
Hubble Space Telescope 0.9 13:26:33 10° WNW 13:30:41 70° NNE 13:33:12 22° E
Cosmos 1140 Rocket 4.4 13:26:48 10° N 13:31:24 31° ENE 13:33:45 22° ESE
Cosmos 1461 2.6 13:30:53 10° SSW 13:34:48 69° ESE 13:38:54 10° NNE
STARLINK-1165 3.6 13:31:28 10° NW 13:35:36 80° SW 13:37:52 26° SSE
MOS 1 Rocket 3.1 13:31:48 10° N 13:36:05 83° W 13:40:21 10° SSW
NOSS 8 (H) 4.5 13:32:06 10° SSW 13:36:19 66° ESE 13:39:35 10° NE
Okean 3 4.0 13:34:26 22° SSE 13:36:42 39° E 13:40:43 10° NNE
TELKOM 3 3.5 13:35:05 10° NNW 13:37:00 38° NE 13:37:00 38° NE
Cosmos 1743 2.5 13:33:20 10° N 13:37:07 76° E 13:39:35 21° S
Cosmos 2278 Rocket 3.2 13:32:48 10° SW 13:38:16 50° WNW 13:43:46 10° N
Cosmos 2034 Rocket 3.9 13:32:47 10° N 13:38:57 88° E 13:45:07 10° S
SJ-6B 2.7 13:38:06 27° SSE 13:39:58 61° ENE 13:43:39 10° N
STARLINK-1169 3.7 13:36:27 10° NW 13:40:33 70° SW 13:42:39 27° SSE
GPS 2-12 Rocket1 3.0 13:36:15 10° WSW 13:40:37 57° S 13:42:31 31° ESE
Cosmos 2221 Rocket 4.0 13:38:27 23° SSE 13:40:43 42° E 13:44:58 10° NNE
Cosmos 1782 Rocket 3.8 13:39:00 10° N 13:43:19 48° E 13:45:04 31° SE
FREGAT/IRIS 2.5 13:42:40 34° S 13:43:36 64° W 13:46:14 10° NNW
Cosmos 1190 Rocket 4.2 13:40:07 10° N 13:45:12 50° ENE 13:47:31 29° SE
Cosmos 44 Rocket 4.3 13:40:34 10° NW 13:45:17 44° WSW 13:49:25 13° S
STARLINK-1178 3.9 13:41:28 10° NW 13:45:33 60° SW 13:47:27 29° SSE
OE (NEXTSAT) 4.4 13:42:41 10° SW 13:46:09 76° NW 13:49:39 10° NE
BREEZE M DEB (TANK) 2.9 13:44:40 10° NNW 13:46:40 30° NE 13:46:40 30° NE
STARLINK-1120 4.1 13:46:27 10° NW 13:50:28 52° SW 13:52:12 30° S
STARLINK-1131 4.4 13:51:29 10° NW 13:55:25 45° SW 13:56:59 30° S
SPOT 3 Rocket 3.7 13:54:15 34° SE 13:56:08 52° ENE 14:01:06 10° N
Cosmos 1544 3.1 13:52:43 10° N 13:56:15 54° E 13:56:22 54° E
Ariane Rocket 3.6 13:52:14 11° S 13:56:55 53° W 14:01:52 10° NNW
Resurs 01 Rocket 2.6 13:57:59 29° ENE 13:58:06 29° ENE 14:01:56 10° NNE
ATLAS 3B CENTAUR R/B 4.1 13:39:53 10° WSW 14:00:07 82° NNW 14:08:19 11° ENE
Cosmos 371 Rocket 3.8 13:58:46 10° SSW 14:03:31 59° WNW 14:08:18 10° N
NOSS 2-2 (D) 2.9 14:00:42 10° SSW 14:04:34 78° ESE 14:08:07 10° NNE
H-2A R/B 3.5 14:00:37 10° SSW 14:05:04 33° W 14:09:38 10° NW
Sich 1 Rocket 3.7 14:01:16 10° N 14:05:46 57° E 14:06:21 52° ESE
Cosmos 1023 Rocket 4.4 14:01:13 10° NNW 14:06:28 80° ENE 14:08:17 42° SSE
SEDSat Delta rocket 4.0 14:00:43 10° WNW 14:07:31 85° NNE 14:10:19 38° ESE
Cosmos 1954 Rocket 4.3 14:03:55 10° N 14:08:59 47° ENE 14:09:45 44° E
Okean 2 Rocket 4.0 14:07:38 10° NNE 14:10:54 33° ENE 14:10:54 33° ENE
MetOp-A 4.1 14:09:21 36° SSE 14:11:40 89° WSW 14:17:02 10° NNW
Cosmos 909 Rocket 4.0 14:06:00 10° NNW 14:12:54 78° ENE 14:15:11 42° SE
CREW DRAGON DEMO-1 DEB 4.1 14:10:57 10° NW 14:13:18 37° W 14:13:18 37° W
Cosmos 1634 Rocket 3.9 14:08:17 10° N 14:14:35 71° E 14:16:56 41° SSE
Aureole 1 Rocket 3.9 14:09:12 10° NNW 14:14:42 83° WSW 14:18:04 32° S
Cosmos 1331 Rocket 4.5 14:17:09 41° ENE 14:17:09 41° ENE 14:21:10 10° NNE
STARLINK-1077 4.5 14:13:51 10° NNW 14:17:28 37° NE 14:17:28 37° NE
SL-4 R/B 2.1 14:13:40 10° SW 14:18:10 79° SE 14:22:56 10° NE
Cosmos 724 4.4 14:15:13 10° NNW 14:21:10 73° WSW 14:23:13 43° S
NOSS 2-2 (E) 4.4 14:18:23 10° SW 14:21:55 39° WNW 14:25:17 10° N
STARLINK-1075 4.4 14:18:46 10° NNW 14:22:17 41° NNE 14:22:17 41° NNE
Resurs 1-3 3.5 14:22:36 70° SSW 14:23:02 80° W 14:27:25 10° NNW
Cosmos 676 Rocket 3.8 14:21:26 10° N 14:26:43 78° ENE 14:27:15 70° SE
Centaur D-1A AC-32 2.8 14:12:33 10° WNW 14:27:35 74° SSW 14:28:33 58° SE
STARLINK-1093 4.4 14:23:39 10° NNW 14:27:02 44° NNE 14:27:02 44° NNE
Delta 198 4.1 14:27:04 10° W 14:30:53 48° WSW 14:30:53 48° WSW
STARLINK-1074 4.4 14:28:36 10° NNW 14:31:50 46° N 14:31:50 46° N
SWIFT 4.0 14:30:38 10° WSW 14:32:35 25° SW 14:32:35 25° SW
Cosmos 304 Rocket 4.1 14:34:11 42° SW 14:35:36 62° WNW 14:40:21 10° N
Cosmos 1437 Rocket 4.1 14:42:54 36° NNW 14:42:54 36° NNW 14:45:25 10° N
Cosmos 2297 4.3 14:36:49 10° SSW 14:42:18 54° WNW 14:47:51 10° N
Cosmos 1300 Rocket 4.3 14:38:04 10° N 14:41:18 48° N 14:41:18 48° N
COSMOS 2406 3.6 14:37:00 10° NNW 14:42:37 57° WSW 14:43:41 49° SW
Cosmos 1943 Rocket 3.1 14:46:06 34° NE 14:46:06 34° NE 14:49:19 10° NNE
Lacrosse 5 3.3 14:41:44 10° N 14:45:19 27° NE 14:45:19 27° NE
ATLAS 2AS CENTAUR R/B 4.0 14:51:16 29° ENE 14:51:16 29° ENE 14:55:29 10° NE
Cosmos 1674 Rocket 4.5 14:50:59 45° NNW 14:50:59 45° NNW 14:54:11 10° N
H-2A ROCKET BODY 2.9 14:46:21 10° WSW 14:50:46 82° SSE 15:11:39 10° ENE
Meteor 1-23 Rocket 4.1 14:52:15 85° NW 14:52:15 85° NW 14:57:51 10° N
Cosmos 1833 Rocket 2.7 14:49:38 10° NNW 14:55:00 74° W 14:55:00 74° W
Cosmos 2369 Rocket 3.8 15:02:15 24° NE 15:02:15 24° NE 15:04:27 10° NNE
Cosmos 2082 Rocket 2.6 14:55:49 10° NNW 15:00:27 56° NNE 15:00:27 56° NNE
Hubble Space Telescope 3.6 15:08:01 10° W 15:08:31 13° W 15:08:31 13° W
Nadezhda 4 Rocket 4.1 15:14:54 67° WNW 15:14:54 67° WNW 15:20:41 10° N
Resurs 01 Rocket 4.3 15:35:33 14° W 15:35:33 14° W 15:37:04 10° WNW
Terra 4.3 15:47:43 17° N 15:47:43 17° N 15:48:50 10° N
Milstar 3 Cent rocket 4.2 15:48:21 10° WSW 15:57:37 82° NNW 16:19:16 10° ENE
ATLAS 3B CENTAUR R/B 3.8 16:13:58 10° W 16:22:32 44° NW 16:22:32 44° NW
ATLAS 2AS CENTAUR R/B 4.2 16:38:34 35° WNW 16:39:08 35° WNW 16:46:18 10° N
CENTAUR R/B 4.4 17:52:37 10° NW 17:56:49 33° NW 17:56:49 33° NW
ATLAS 3B R/B 4.4 17:56:41 10° NNW 17:59:31 26° N 17:59:31 26° N
FALCON 9 R/B 4.2 18:52:28 31° NNW 18:55:16 42° NNE 19:13:49 10° E
Cosmos 1980 Rocket 4.1 19:21:55 25° N 19:21:55 25° N 19:24:10 10° NNE
Resurs 1-4 Rocket 4.1 19:22:02 10° N 19:23:55 23° N 19:23:55 23° N
CZ-2D R/B 4.1 19:35:26 10° N 19:37:13 21° N 19:37:13 21° N
SL-16 R/B 3.4 19:49:08 41° NNW 19:49:08 41° NNW 19:52:58 10° NNW
Cosmos 2322 Rocket 3.3 19:55:05 40° ENE 19:55:05 40° ENE 19:59:09 10° NNE
ARIANE 5 R/B 3.8 19:56:23 10° NNE 19:59:44 36° ENE 19:59:44 36° ENE
Cosmos 2154 Rocket 4.2 20:04:21 67° NNE 20:04:21 67° NNE 20:09:47 10° N
Palapa 6 Rocket 4.2 20:13:45 84° WSW 20:14:03 88° S 20:22:11 10° E
SL-16 R/B 2.6 20:26:24 55° NNW 20:26:24 55° NNW 20:31:04 10° N
Cosmos 2221 3.8 20:21:53 10° N 20:24:50 38° NNE 20:24:50 38° NNE
Cosmos 2298 Rocket 4.3 20:21:48 10° N 20:26:57 65° ENE 20:26:57 65° ENE
SL-08 R/B 3.7 20:33:14 57° ENE 20:33:14 57° ENE 20:37:47 10° N
BREEZE-M DEB (TANK) 3.9 20:38:58 64° SSW 20:39:58 82° SE 20:43:51 10° NE
ERS-2 3.6 20:42:10 34° ENE 20:42:10 34° ENE 20:45:27 10° N
Nadezhda 3 Rocket 3.9 20:39:50 10° N 20:46:11 85° W 20:47:51 52° S
ADEOS II 3.4 20:41:57 10° NNW 20:45:13 26° NW 20:45:13 26° NW
STARLINK-63 4.5 20:51:17 42° NE 20:51:17 42° NE 20:53:51 10° NE
Cosmos 2333 Rocket 4.1 20:47:05 13° SSE 20:50:47 23° ESE 20:55:08 10° NE
MSX 4.4 20:46:13 10° NNE 20:51:47 52° E 20:54:31 29° SSE
STARLINK-68 4.2 20:53:02 49° NE 20:53:02 49° NE 20:55:53 10° NE
STARLINK-35 4.2 20:54:00 49° NE 20:54:00 49° NE 20:56:51 10° NE
STARLINK-1013 4.2 20:53:47 50° ESE 20:53:47 50° ESE 20:57:25 10° NE
STARLINK-51 4.1 20:55:35 52° NE 20:55:35 52° NE 20:58:31 10° NE
Cosmos 2360 Rocket 2.1 20:53:59 63° SSW 20:54:58 89° ESE 21:00:36 10° NNE
STARLINK-30 4.0 20:57:09 54° NE 20:57:09 54° NE 21:00:08 10° NE
Cosmos 783 Rocket 4.5 20:56:41 62° W 20:56:54 63° WNW 21:02:10 10° N
STARLINK-72 4.0 20:57:50 52° NE 20:57:50 52° NE 21:00:43 10° NE
STARLINK-1009 3.9 20:58:34 59° ESE 20:58:34 59° ESE 21:02:26 10° NE
IDEFIX/ARIANE 42P 2.4 20:54:32 10° N 20:59:48 85° WNW 21:00:52 58° SSW
Cosmos 2341 Rocket 4.0 20:58:32 51° SW 20:59:53 63° W 21:06:11 10° N
Cosmos 1766 Rocket 4.4 20:59:06 33° SE 21:00:32 47° E 21:04:43 10° NNE
Cosmos 2322 4.5 20:58:19 27° SSE 21:01:05 47° ESE 21:06:32 10° NNE
STARLINK-59 3.8 21:01:48 57° NNE 21:01:48 57° NNE 21:04:54 10° NE
Cosmos 773 Rocket 3.9 21:00:39 55° S 21:01:49 84° ESE 21:07:05 10° NNE
Meteor 2-2 Rocket 4.3 20:56:23 10° NNW 21:02:22 69° W 21:04:13 45° SSW
STARLINK-1192 4.5 20:58:28 10° NNW 21:02:29 50° NE 21:06:29 10° SE
Fermi 4.1 21:02:31 57° NNW 21:02:47 59° N 21:06:49 10° E
ATLAS CENTAUR R/B 3.8 20:57:17 10° NW 21:02:49 56° SW 21:17:48 10° SSE
STARLINK-56 3.7 21:03:26 62° NNE 21:03:26 62° NNE 21:06:41 10° NE
STARLINK-1015 3.6 21:03:21 70° SE 21:03:21 70° SE 21:07:26 10° NE
H-2A R/B 2.6 21:01:37 25° SSE 21:03:58 58° ENE 21:08:16 10° N
Cosmos 1825 2.3 21:04:37 66° N 21:04:37 66° N 21:07:53 10° N
STARLINK-73 3.7 21:05:00 62° N 21:05:00 62° N 21:08:17 10° NE
STARLINK-38 3.6 21:06:35 61° N 21:06:35 61° N 21:09:56 10° NNE
STARLINK-1244 4.2 21:03:23 10° NNW 21:07:27 57° NE 21:11:31 10° SE
STARLINK-65 3.6 21:08:10 61° NNW 21:08:10 61° NNW 21:11:34 10° NNE
STARLINK-1016 3.5 21:08:09 78° SSE 21:08:19 81° SE 21:12:27 10° NE
STARLINK-53 3.7 21:09:51 55° NNW 21:09:51 55° NNW 21:13:15 10° NNE
ERBS 3.4 21:08:04 10° NNW 21:11:17 44° NE 21:14:30 10° SE
STARLINK-1138 3.9 21:08:20 10° NNW 21:12:26 66° NE 21:16:32 10° SE
STARLINK-1008 3.4 21:12:56 74° SW 21:13:17 88° NW 21:17:26 10° NE
CZ-4C R/B 3.3 21:14:13 41° SSE 21:15:19 68° ENE 21:18:56 10° N
Cosmos 864 Rocket 4.4 21:11:56 27° S 21:15:27 89° W 21:21:36 10° N
deb Chang Zheng 4 3.9 21:11:41 10° NNE 21:15:53 61° E 21:17:45 31° S
Cosmos 2219 Rocket 3.3 21:11:59 14° SSE 21:16:15 39° ESE 21:21:24 10° NE
COBE Rocket 4.0 21:16:21 47° SW 21:17:07 52° W 21:22:02 10° NNW
STARLINK-1143 3.7 21:13:15 10° NW 21:17:24 75° NE 21:21:30 10° SE
STARLINK-1014 3.4 21:17:45 65° WSW 21:18:16 77° NW 21:22:22 10° NE
STARLINK-71 3.9 21:19:16 45° WNW 21:19:36 46° NW 21:23:29 10° NNE
CZ-4B R/B 4.4 21:20:36 10° ESE 21:22:16 14° ENE 21:23:56 10° NE
STARLINK-1241 3.5 21:18:15 10° NW 21:22:24 87° NE 21:26:32 10° SE
Lacrosse 5 rocket 3.6 21:20:37 12° SSE 21:23:04 18° ESE 21:25:54 10° ENE
STARLINK-1025 3.6 21:22:30 54° WSW 21:23:14 67° NW 21:27:21 10° NNE
SL-16 Debris 4.1 21:25:56 31° NW 21:26:37 38° N 21:30:49 10° ENE
Skynet4D Del rocket 3.8 21:22:41 17° WNW 21:27:21 74° N 21:32:49 10° E
STARLINK-1239 3.4 21:23:13 10° NW 21:27:22 82° SW 21:31:29 10° SE
Delta 2 Rocket 3.7 21:25:13 33° WSW 21:28:07 87° SSE 21:34:15 10° ENE
STARLINK-1017 3.8 21:27:17 46° W 21:28:13 59° NW 21:32:18 10° NNE
STARLINK-1240 3.4 21:28:11 10° NW 21:32:18 72° SW 21:36:24 10° SSE
Cosmos 2218 Rocket 4.1 21:28:53 27° SSW 21:32:18 56° W 21:38:32 10° N
FUSE 3.9 21:30:18 33° WSW 21:32:49 84° SSE 21:38:13 10° E
CBERS 1 LM4 rocket 4.5 21:27:54 10° NNE 21:33:10 89° WNW 21:36:49 19° SSW
STARLINK-1023 3.9 21:32:04 39° W 21:33:10 51° NW 21:37:13 10° NNE
CZ-2C R/B 3.9 21:30:07 10° NNW 21:33:11 26° WNW 21:33:11 26° WNW
Cosmos 2344 3.9 21:27:42 14° SSW 21:34:54 64° ESE 21:42:15 10° NE
USA 234 3.3 21:29:39 10° NNE 21:36:09 71° NW 21:40:21 24° SW
Cosmos 2263 Rocket 2.2 21:31:35 10° NNW 21:36:59 54° WSW 21:42:22 10° S
STARLINK-1203 3.5 21:33:04 10° NW 21:37:12 62° SW 21:41:20 10° SSE
STARLINK-1216 3.5 21:33:11 10° NW 21:37:15 62° SW 21:41:20 10° SSE
Cosmos 2322 Rocket 3.9 21:36:55 15° WNW 21:37:56 15° WNW 21:41:09 10° NNW
STARLINK-1007 4.1 21:36:50 33° W 21:38:09 45° NW 21:42:08 10° NNE
ARIANE 5 R/B 4.4 21:37:44 10° NW 21:39:48 13° WNW 21:40:03 12° WNW
ATLAS 5 CENTAUR R/B 3.6 21:38:27 10° SSE 21:41:26 20° ESE 21:44:28 10° ENE
Cosmos 1633 4.4 21:38:28 10° SSE 21:41:35 29° E 21:44:42 10° NNE
STARLINK-1010 4.5 21:40:18 28° W 21:41:49 38° NW 21:45:47 10° NNE
STARLINK-1237 3.6 21:38:12 10° NW 21:42:13 54° SW 21:46:15 10° SSE
STARLINK-1048 4.3 21:41:37 28° W 21:43:08 39° NW 21:47:01 10° NNE
Cosmos 2151 4.1 21:42:47 25° W 21:43:16 26° W 21:46:49 10° NNW
STARLINK-1202 3.8 21:43:13 10° NW 21:47:11 46° SW 21:51:09 10° SSE
BREEZE-M R/B 3.1 21:44:01 22° SW 21:47:17 79° NW 21:49:31 10° NE
Cosmos 923 Rocket 4.4 21:45:59 10° S 21:51:06 62° ESE 21:56:12 10° NNE
Cosmos 1818 4.2 21:47:00 10° S 21:52:14 54° ESE 21:57:31 10° NE
USA 229 DEB 4.0 21:46:57 10° NNW 21:54:30 90° N 22:02:15 10° SSE
USA 229 4.0 21:47:03 10° NNW 21:54:36 89° ENE 22:02:20 10° SSE
Cosmos 1606 2.9 21:51:58 10° N 21:55:43 72° E 21:59:28 10° S
STARLINK-1246 4.1 21:53:20 10° WNW 21:57:07 35° SW 22:00:54 10° SSE
NOSS 3-1 (C) 4.2 21:50:35 10° NNW 21:58:54 78° WSW 22:07:53 10° SSE
ALOS 4.0 21:56:46 10° NE 22:00:57 33° E 22:05:07 10° SSE
STARLINK-1224 4.3 21:58:24 10° WNW 22:02:04 31° SW 22:05:43 10° S
COSMOS 2428 2.7 21:57:11 11° SSW 22:02:43 79° WNW 22:08:25 10° NNE
Cosmos 1933 3.6 21:59:07 10° N 22:03:08 71° E 22:07:06 10° S
Palapa 6 Rocket 4.4 21:55:45 10° W 22:03:47 81° S 22:11:38 10° ESE
Cosmos 2237 Rocket 3.8 21:59:58 10° SSE 22:04:57 33° ESE 22:09:57 10° NE
STARLINK-1225 4.5 22:03:31 10° WNW 22:07:02 27° SW 22:10:33 10° S
BREEZE-M DEB (TANK) 2.6 22:04:28 10° NW 22:07:08 81° NE 22:14:29 10° SE
Cosmos 1328 Rocket 3.5 22:04:05 10° N 22:08:27 83° W 22:12:47 10° S
STARLINK-1068 4.3 22:06:23 10° SSW 22:10:22 50° SE 22:14:23 10° NE
STARLINK-1027 4.1 22:11:18 10° SSW 22:15:21 57° SE 22:19:25 10° NE
Cosmos 158 Rocket 4.3 22:11:41 10° S 22:16:49 70° ESE 22:21:49 10° NNE
Cosmos 1500 Rocket 3.5 22:14:58 10° SSW 22:19:21 69° W 22:23:46 10° N
STARLINK-1060 3.9 22:16:12 10° SSW 22:20:18 66° SE 22:24:24 10° NE
Spot 2 4.2 22:18:17 10° NNE 22:22:17 72° ESE 22:26:24 10° S
Cosmos 1689 Rocket 2.6 22:20:55 10° SSE 22:23:47 60° ENE 22:26:40 10° N
CZ-2C R/B 3.3 22:20:24 10° N 22:25:00 33° WNW 22:29:34 10° SW
STARLINK-1030 3.7 22:21:10 10° SSW 22:25:18 77° SE 22:29:25 10° NE
Meteor 1-26 Rocket 4.5 22:21:53 10° N 22:27:48 88° E 22:33:47 10° S
FENGYUN 3A 3.9 22:23:51 10° NNE 22:29:16 76° ESE 22:34:40 10° S
STARLINK-1020 3.6 22:26:08 10° SW 22:30:15 88° SE 22:34:24 10° NE
Cosmos 1805 Rocket 4.1 22:26:10 10° S 22:30:32 64° E 22:34:54 10° NNE
Cosmos 1844 Rocket 2.8 22:28:24 10° NNW 22:34:00 83° ENE 22:39:33 10° SSE
Cosmos 2333 Rocket 3.1 22:29:53 10° SW 22:34:46 30° WNW 22:39:41 10° N
STARLINK-1052 3.6 22:31:04 10° SW 22:35:12 82° NW 22:39:20 10° NE
